Temperature
21 20 20 20 19 19 19 19 19 19 19 19 19 19 18 18 18 18 18 18 18 18 18 18 18 17 17 17 17 17 16 16 16 16 16 16 16 15 15 15 15 15 15
21 20 20 20 20 19 19 19 19 19 19 18 18 19 18 18 18 18 18 18 18 18 17 17 17 17 17 17 17 17 16 16 16 16 16 16 15 15 15 15 15 15 15
20 20 20 20 20 19 19 19 19 19 18 18 18 18 18 18 18 18 18 18 18 17 17 17 17 17 17 17 17 17 16 16 16 16 16 16 15 15 15 15 15 15 15
20 20 20 20 19 19 19 19 19 19 18 18 18 18 18 18 18 18 18 18 17 17 17 17 17 17 17 17 17 17 16 16 16 16 16 16 15 15 15 15 15 15 15
20 20 20 20 19 19 19 19 19 18 18 18 18 18 18 18 18 18 18 18 17 17 17 17 17 17 17 16 16 16 16 16 16 16 16 15 15 15 15 15 15 15 15
21 20 20 20 19 19 19 19 19 18 18 18 18 18 18 18 18 18 18 18 17 17 17 17 17 17 17 16 16 16 16 16 16 16 16 15 15 15 15 15 14 14 14
20 20 20 20 20 19 19 19 19 18 18 18 18 18 18 18 18 18 18 17 17 17 17 17 17 17 16 16 16 16 16 16 16 16 15 15 15 15 15 14 14 14 14
21 20 20 20 20 19 19 19 19 18 18 18 18 18 18 18 18 18 17 17 17 17 17 16 16 16 16 16 16 16 16 16 16 16 15 15 15 15 14 14 14 14 14
21 20 20 20 20 19 19 19 19 18 18 18 18 18 18 18 18 17 17 17 17 17 16 16 16 16 16 16 16 16 16 16 16 15 15 15 15 15 14 14 14 14 14
21 20 20 20 19 19 19 19 18 18 18 18 18 18 17 18 17 17 17 17 16 16 16 16 16 16 16 16 15 15 15 15 15 15 15 15 15 14 14 14 14 13 13
20 20 20 19 19 19 19 18 18 18 18 18 18 17 17 17 17 17 17 16 16 16 16 16 16 16 16 15 15 15 15 15 15 15 15 14 14 14 14 14 14 13 13
20 20 19 19 19 19 18 18 18 18 17 17 17 17 17 17 17 17 17 16 16 16 16 16 16 16 15 15 15 15 15 14 14 14 14 14 14 14 14 14 13 13 13
19 19 19 19 18 18 18 18 17 17 17 17 17 17 17 17 17 16 16 16 16 16 16 16 15 15 15 15 15 15 14 14 14 14 14 14 14 13 13 13 13 13 13
19 19 18 18 18 18 17 17 17 17 17 16 17 17 16 16 16 16 16 16 16 15 15 15 15 15 15 15 15 14 14 14 14 13 13 13 13 13 13 13 13 12 12
19 18 18 18 17 17 17 17 17 17 16 16 16 16 16 16 16 16 16 16 15 15 15 15 15 15 14 14 14 14 14 14 13 13 13 13 13 13 12 12 12 12 12
18 18 17 17 17 17 16 16 16 16 16 16 16 16 16 16 16 15 15 15 15 15 15 14 14 14 14 14 14 14 14 13 13 13 13 13 13 12 12 12 12 12 11
17 17 17 16 16 16 16 16 16 16 16 16 16 16 16 16 15 15 15 15 15 15 14 14 14 14 14 14 14 14 13 13 13 13 13 13 12 12 12 11 11 11 11
17 17 16 16 16 16 15 15 15 15 15 15 15 15 15 15 15 15 15 15 15 14 14 14 14 14 14 13 13 13 13 13 12 12 12 12 12 12 11 11 11 11 11
16 16 16 16 16 15 15 15 15 15 15 15 15 15 15 15 15 15 15 14 14 14 14 14 14 13 13 13 13 13 13 12 12 12 12 12 12 11 11 11 11 11 10
16 16 16 16 15 15 15 15 15 15 14 15 15 15 15 14 14 14 14 14 14 14 14 13 13 13 13 13 12 12 12 12 12 11 11 11 11 11 11 11 10 10 10
16 16 16 15 15 15 15 15 15 14 14 14 14 14 14 14 14 14 14 14 14 14 14 13 13 13 13 12 12 12 12 11 11 11 11 11 11 11 11 10 10 10 10
16 15 15 15 15 15 15 14 14 14 14 14 14 14 14 14 14 14 14 13 13 13 13 13 13 12 12 12 12 12 11 11 11 11 11 11 10 10 10 10 10 10 9
15 15 15 15 14 14 14 14 14 14 14 14 14 14 14 13 13 13 13 13 13 13 12 12 12 12 11 11 11 11 11 11 11 11 10 10 10 10 10 9 9 9 9
14 14 14 14 14 14 14 14 14 14 14 13 13 13 13 13 13 13 13 12 12 12 12 12 11 11 11 11 11 10 10 10 10 10 10 10 10 9 9 9 9 9 8
14 14 14 14 13 13 13 13 13 13 13 13 12 12 12 12 12 12 12 12 12 11 11 11 11 11 10 10 10 10 10 10 9 9 9 9 9 9 8 8 8 8 8
13 13 13 13 13 13 13 13 12 12 12 12 12 12 11 11 11 11 11 11 11 11 10 10 10 10 10 10 9 9 9 9 9 9 9 8 8 8 8 7 7 7 7
Wind_Speed
8 7 7 6 6 5 5 5 4 3 3 3 3 3 3 2 2 2 2 1 1 1 1 2 2 2 1 1 1 1 1 2 3 3 2 1 2 2 2 5 6 6 7
9 8 7 6 6 6 5 4 4 4 3 3 3 3 3 3 2 3 3 2 2 2 3 2 3 2 2 1 1 1 2 2 3 2 2 1 2 3 3 3 4 6 7
9 8 8 7 7 7 6 5 5 4 3 3 3 3 3 3 2 3 3 2 3 3 3 3 3 2 2 2 2 2 2 2 2 2 3 2 2 2 1 2 3 3 6
9 9 8 8 8 7 6 6 5 5 4 4 3 3 3 2 2 2 2 2 3 3 3 3 3 4 4 3 3 3 2 1 1 2 2 2 3 2 1 2 3 4 4
9 8 8 8 7 6 6 6 5 5 5 5 4 3 3 3 3 3 3 3 3 3 3 3 4 4 5 4 3 3 3 2 2 2 3 2 3 2 3 3 4 4 4
9 9 8 7 7 7 7 6 5 5 4 4 4 4 4 4 5 6 5 3 3 3 4 3 3 3 4 5 6 6 5 4 4 4 4 4 5 5 4 4 3 2 4
9 8 8 7 7 8 8 6 6 6 5 5 5 5 5 5 6 5 5 4 4 4 4 4 4 4 4 3 5 5 6 7 8 7 6 7 6 6 5 5 5 5 6
8 7 7 7 7 6 6 7 7 6 6 6 6 6 5 6 6 6 6 4 4 5 5 5 5 5 4 4 3 4 5 6 7 7 8 9 8 7 7 7 7 6 5
7 7 7 7 7 6 6 6 6 6 6 6 5 6 6 6 6 7 6 3 3 5 5 5 5 6 7 6 4 5 6 6 7 8 9 10 10 9 7 3 3 2 4
7 6 6 6 6 7 7 6 5 5 6 5 5 6 6 6 7 8 7 4 4 5 4 4 6 7 8 6 5 5 7 8 6 5 5 7 6 7 8 7 6 5 4
6 6 5 5 5 6 5 4 4 4 4 4 5 5 6 7 8 9 8 5 5 5 4 5 5 7 8 8 7 7 10 8 5 5 5 5 4 4 5 6 6 6 6
5 5 5 5 5 4 4 4 4 5 5 5 5 5 5 6 7 8 9 9 7 5 6 6 6 8 8 9 8 9 10 6 4 4 4 5 5 6 6 6 7 7 7
4 4 4 4 4 4 4 5 4 5 5 5 5 6 6 5 5 8 9 9 9 6 6 9 9 9 8 8 9 9 7 5 4 5 6 7 6 6 4 3 4 4 5
4 4 4 4 4 3 3 4 5 5 5 5 5 5 5 4 4 4 4 5 6 6 6 7 8 8 6 7 6 5 5 5 6 6 6 6 4 3 4 3 3 3 3
3 3 3 4 4 4 3 3 4 5 6 6 6 5 5 6 7 8 6 5 5 6 4 2 2 2 3 4 4 4 4 4 5 5 5 5 4 4 4 3 3 3 3
4 3 2 3 3 3 3 2 3 4 6 7 8 7 6 8 8 8 8 8 8 7 3 3 4 4 5 5 5 4 4 5 6 5 4 4 4 4 4 3 3 3 4
4 3 2 2 2 3 3 3 3 4 5 6 7 8 8 8 8 8 8 6 5 5 4 4 5 5 6 6 5 5 5 5 4 4 4 4 4 4 3 4 4 4 4
3 3 2 2 3 3 3 3 4 4 4 5 6 8 9 8 8 7 5 3 1 3 5 5 6 6 5 5 5 5 5 4 3 4 4 4 4 4 4 4 4 5 5
3 2 2 2 3 3 4 4 4 4 5 5 4 5 6 6 5 5 5 4 5 5 5 5 5 5 5 4 5 4 4 4 4 4 4 4 4 4 4 4 5 5 5
3 3 3 2 2 3 3 3 4 4 4 4 5 5 2 1 2 3 4 4 4 4 4 5 5 5 4 4 3 3 3 3 3 3 3 3 3 4 4 5 5 5 4
2 2 3 2 2 3 3 3 4 4 4 5 5 5 5 4 5 5 5 5 5 5 4 5 4 4 4 3 3 3 3 3 3 3 3 4 3 4 4 4 5 4 4
2 2 3 3 3 3 3 3 4 4 4 5 5 5 5 4 4 4 5 5 5 5 4 3 4 4 4 3 3 3 3 3 3 3 3 3 3 4 4 4 4 3 3
3 3 3 3 3 3 3 3 3 3 3 4 4 3 3 3 4 4 4 4 4 3 3 3 3 2 2 1 2 2 2 3 3 3 3 3 3 3 3 3 4 4 4
2 2 3 2 2 2 2 2 2 2 2 2 3 3 3 3 3 3 3 3 2 2 1 1 1 2 2 1 1 1 1 2 3 2 2 3 3 2 2 3 3 3 3
1 1 2 2 2 2 2 2 2 2 2 2 2 2 2 2 2 2 1 1 1 0 1 1 1 2 2 2 1 0 1 2 2 2 1 1 1 1 1 2 2 2 2
1 1 1 1 1 2 1 1 2 2 2 2 2 2 2 1 1 1 1 0 1 1 1 1 2 2 2 2 1 1 1 2 3 2 1 0 0 1 1 1 2 2 2
Wind_Direction
181 181 179 178 176 171 174 185 185 184 182 176 177 176 177 187 187 172 197 198 196 245 256 220 235 232 229 241 202 195 198 174 216 269 241 224 185 204 199 209 217 218 224
182 179 181 175 173 177 187 193 184 182 181 179 175 175 187 196 195 194 214 213 208 230 245 233 247 237 229 235 208 215 223 199 187 233 254 226 214 216 214 213 219 227 226
179 178 180 178 177 185 188 188 181 180 181 178 168 176 190 200 203 208 210 218 221 232 238 231 240 219 239 235 221 227 233 216 187 196 241 235 236 225 218 242 236 242 236
176 178 183 186 187 190 189 186 185 180 180 184 185 189 192 195 202 208 210 220 236 246 247 235 229 217 222 228 227 228 220 203 197 202 241 251 244 237 196 228 254 253 247
173 178 189 190 185 184 187 190 190 188 195 189 184 195 201 206 220 216 219 227 235 247 255 243 234 222 219 222 225 221 208 207 208 214 236 251 249 229 228 221 232 253 255
176 185 187 184 185 188 191 192 189 193 196 187 193 199 215 237 237 224 214 227 229 230 245 254 244 236 242 237 234 223 205 203 212 216 230 237 245 236 232 225 223 233 262
179 184 185 185 191 199 199 193 197 201 198 199 207 206 220 237 234 227 219 218 225 229 233 241 253 256 242 247 251 242 235 230 215 208 224 234 235 229 219 227 224 224 239
181 189 190 186 192 197 197 200 205 205 204 210 216 217 223 241 233 228 223 224 237 236 232 228 235 252 251 231 243 258 259 255 240 226 229 236 235 228 214 216 224 237 254
182 190 195 190 190 193 199 208 211 208 214 218 215 217 224 244 236 224 214 223 242 249 245 238 233 247 251 228 229 252 269 276 265 243 240 244 244 238 219 206 221 229 259
183 186 188 185 188 197 204 207 209 211 220 220 226 226 226 237 233 221 210 219 239 257 264 256 242 243 249 230 226 237 255 265 273 277 266 267 262 256 233 214 212 218 239
179 179 183 183 190 198 201 207 212 216 221 224 230 238 234 234 233 225 211 215 232 244 254 260 260 252 249 241 232 236 246 252 253 252 261 268 269 264 248 232 218 212 219
167 174 186 191 200 207 198 215 221 211 221 233 238 249 249 241 235 229 213 213 217 226 246 255 257 255 252 251 245 246 250 250 254 254 257 261 259 258 254 241 231 226 226
160 178 192 195 202 202 200 212 219 218 223 235 236 244 253 246 240 233 223 224 224 227 248 255 259 256 251 252 252 250 245 238 237 249 254 257 253 252 252 251 246 239 245
165 184 191 192 201 208 209 210 213 220 224 231 231 241 254 255 250 244 238 235 236 242 258 270 268 263 259 259 263 254 236 233 233 242 252 258 261 256 250 242 242 244 261
163 177 197 203 206 212 220 230 226 230 224 224 231 231 237 253 253 237 233 237 235 238 243 267 272 282 276 282 272 255 245 241 243 248 252 260 259 255 253 244 234 229 238
167 178 198 207 210 209 213 264 279 253 252 242 232 227 237 239 243 240 239 234 228 216 192 232 250 254 257 260 261 254 245 244 245 245 243 244 248 248 252 251 237 230 239
173 183 193 213 212 219 222 226 264 291 283 265 254 243 239 243 240 241 239 232 228 186 200 235 244 249 255 257 254 246 247 246 242 242 241 241 244 244 246 246 242 240 245
178 188 194 216 220 219 224 229 236 246 267 276 267 252 253 251 245 240 223 180 215 203 224 235 243 247 250 254 254 247 248 251 242 239 240 238 234 234 238 243 242 240 241
188 208 211 223 231 232 227 228 235 242 251 264 279 278 267 265 261 241 191 200 221 231 233 237 240 243 245 250 256 253 246 247 248 239 236 239 237 235 241 244 246 246 238
191 204 209 222 233 239 235 236 239 243 252 257 259 259 255 231 246 241 222 230 232 238 235 235 236 237 240 245 256 258 255 251 248 248 249 246 241 235 240 246 245 245 244
196 220 234 242 238 242 245 240 240 243 249 253 256 253 219 222 233 232 229 230 230 233 235 233 233 236 237 237 235 242 249 257 254 252 254 250 245 245 246 248 251 244 245
202 217 229 239 246 246 245 245 241 243 249 252 260 267 241 232 234 230 230 232 233 233 231 228 223 225 223 217 220 227 242 254 256 252 249 250 249 253 256 256 260 252 242
210 225 239 247 244 242 247 250 250 253 257 257 259 261 249 241 241 234 237 239 234 236 233 217 212 212 214 203 199 209 222 244 253 244 243 254 262 265 264 266 261 252 250
205 221 235 248 252 245 245 250 255 256 257 266 267 263 256 243 243 246 248 244 235 236 210 178 181 175 165 142 132 162 240 265 271 258 236 239 254 264 266 263 261 252 248
221 238 242 251 250 254 253 259 267 271 275 274 269 271 272 264 254 254 257 241 182 162 137 123 126 132 128 120 119 285 297 310 309 303 285 233 255 283 285 284 283 286 277
212 238 255 259 257 253 254 264 276 283 285 282 277 272 275 276 266 261 236 130 103 86 72 87 98 108 110 108 73 7 10 5 357 342 340 196 284 295 299 291 303 303 299
Height
1527 1529 1531 1532 1534 1535 1536 1537 1538 1539 1539 1540 1540 1540 1540 1540 1540 1540 1540 1540 1539 1539 1539 1539 1538 1538 1537 1537 1537 1536 1535 1535 1533 1532 1532 1531 1531 1530 1529 1528 1527 1526 1525
1525 1527 1528 1530 1532 1533 1534 1535 1536 1537 1538 1538 1538 1538 1538 1538 1538 1538 1538 1538 1538 1538 1537 1537 1536 1536 1536 1535 1535 1534 1533 1532 1532 1530 1530 1529 1528 1528 1527 1526 1525 1524 1523
1523 1524 1526 1528 1529 1531 1532 1533 1534 1535 1536 1536 1537 1537 1537 1537 1537 1537 1537 1537 1536 1536 1535 1535 1535 1534 1533 1533 1532 1531 1531 1530 1529 1528 1527 1527 1526 1525 1524 1523 1522 1521 1520
1521 1522 1524 1525 1527 1528 1530 1531 1532 1533 1533 1534 1535 1535 1535 1535 1534 1534 1535 1534 1534 1533 1533 1533 1532 1532 1531 1530 1530 1529 1528 1527 1527 1526 1525 1524 1523 1522 1521 1520 1519 1518 1517
1518 1520 1521 1523 1524 1526 1527 1529 1530 1530 1531 1532 1532 1532 1532 1532 1532 1532 1532 1532 1531 1531 1530 1530 1530 1529 1528 1528 1527 1526 1525 1524 1524 1523 1522 1521 1520 1519 1517 1517 1516 1515 1514
1516 1517 1519 1520 1522 1523 1524 1526 1527 1527 1528 1529 1529 1529 1530 1530 1530 1530 1530 1529 1529 1528 1527 1527 1527 1526 1525 1525 1524 1523 1523 1521 1520 1519 1518 1517 1516 1515 1514 1513 1512 1511 1510
1513 1515 1516 1517 1519 1520 1521 1522 1523 1524 1525 1525 1526 1526 1526 1527 1527 1527 1527 1527 1526 1525 1524 1524 1523 1522 1522 1521 1520 1519 1518 1517 1517 1516 1514 1513 1512 1511 1510 1509 1508 1507 1506
1510 1512 1513 1514 1515 1517 1518 1519 1520 1521 1521 1521 1522 1523 1523 1523 1524 1524 1524 1523 1522 1521 1521 1520 1519 1519 1518 1517 1516 1514 1513 1513 1512 1511 1510 1509 1508 1507 1506 1506 1504 1503 1502
1507 1508 1510 1511 1512 1514 1515 1515 1516 1517 1518 1518 1518 1519 1519 1519 1520 1520 1520 1519 1518 1517 1517 1516 1515 1514 1514 1513 1512 1510 1508 1507 1507 1506 1505 1504 1504 1503 1502 1501 1500 1498 1496
1503 1505 1507 1508 1509 1510 1511 1512 1513 1514 1514 1514 1515 1515 1515 1515 1516 1516 1516 1515 1514 1513 1512 1512 1511 1510 1509 1508 1507 1505 1503 1502 1502 1501 1500 1499 1498 1497 1497 1496 1494 1493 1492
1501 1503 1504 1505 1506 1507 1508 1509 1510 1510 1511 1510 1510 1511 1511 1511 1511 1511 1511 1511 1510 1509 1508 1507 1506 1505 1504 1503 1502 1501 1499 1498 1497 1495 1494 1494 1493 1492 1491 1491 1489 1488 1487
1498 1500 1501 1502 1503 1504 1504 1505 1506 1506 1506 1506 1506 1506 1506 1506 1506 1506 1506 1506 1505 1504 1503 1502 1501 1500 1499 1498 1496 1495 1494 1492 1491 1489 1488 1487 1487 1486 1485 1485 1484 1483 1482
1495 1496 1497 1498 1500 1500 1501 1501 1502 1502 1502 1502 1502 1501 1501 1501 1501 1501 1501 1500 1500 1499 1498 1498 1496 1495 1494 1492 1490 1489 1488 1486 1485 1483 1482 1481 1481 1480 1480 1479 1478 1478 1477
1492 1493 1494 1495 1495 1496 1497 1497 1497 1497 1497 1497 1497 1496 1496 1496 1496 1496 1495 1495 1494 1494 1493 1492 1491 1489 1488 1486 1484 1483 1481 1480 1479 1477 1476 1476 1476 1475 1474 1474 1473 1472 1471
1489 1489 1490 1490 1492 1492 1492 1493 1492 1492 1493 1493 1492 1492 1492 1491 1491 1492 1491 1490 1489 1489 1488 1486 1485 1483 1482 1480 1478 1476 1475 1474 1473 1472 1471 1471 1470 1469 1469 1468 1467 1467 1466
1485 1485 1486 1487 1487 1488 1488 1488 1488 1488 1488 1488 1488 1487 1486 1486 1486 1486 1486 1485 1484 1484 1482 1481 1479 1478 1476 1474 1472 1470 1469 1468 1467 1466 1466 1465 1464 1464 1463 1463 1462 1461 1460
1482 1482 1483 1483 1483 1484 1484 1483 1483 1483 1483 1483 1482 1482 1482 1481 1481 1480 1479 1479 1479 1478 1477 1475 1474 1472 1471 1469 1466 1464 1463 1462 1462 1461 1460 1460 1459 1458 1458 1457 1456 1455 1455
1480 1480 1480 1480 1480 1480 1480 1479 1479 1478 1478 1477 1477 1477 1476 1476 1476 1475 1474 1473 1472 1471 1470 1469 1468 1467 1466 1463 1461 1459 1458 1457 1456 1455 1455 1454 1453 1453 1452 1451 1451 1450 1449
1477 1477 1476 1476 1476 1476 1476 1475 1475 1474 1473 1473 1472 1472 1471 1471 1470 1469 1468 1467 1466 1465 1464 1463 1462 1461 1460 1458 1456 1454 1453 1452 1451 1450 1449 1448 1448 1447 1446 1446 1445 1444 1443
1473 1473 1473 1472 1472 1472 1471 1471 1470 1470 1469 1468 1467 1467 1466 1465 1464 1463 1462 1461 1460 1459 1458 1458 1457 1456 1455 1453 1451 1450 1448 1447 1446 1445 1443 1443 1442 1442 1441 1441 1440 1439 1438
1469 1469 1469 1469 1468 1467 1467 1467 1466 1466 1465 1463 1463 1462 1461 1460 1459 1458 1457 1456 1455 1454 1453 1452 1451 1451 1449 1448 1447 1445 1444 1442 1441 1439 1439 1438 1437 1436 1436 1435 1435 1433 1432
1466 1465 1465 1464 1464 1464 1463 1462 1462 1461 1460 1459 1458 1457 1456 1455 1454 1452 1451 1450 1449 1449 1448 1447 1446 1445 1444 1443 1442 1441 1439 1437 1435 1434 1433 1432 1431 1430 1430 1429 1428 1428 1427
1462 1461 1461 1461 1460 1460 1459 1458 1457 1456 1455 1454 1453 1452 1451 1449 1448 1447 1446 1445 1444 1443 1443 1441 1440 1439 1439 1438 1437 1436 1435 1433 1431 1429 1429 1427 1426 1425 1425 1424 1423 1422 1421
1458 1458 1457 1457 1456 1455 1454 1454 1453 1452 1450 1449 1448 1447 1445 1444 1443 1442 1441 1440 1439 1438 1437 1436 1435 1435 1434 1434 1433 1432 1431 1429 1428 1426 1425 1423 1422 1420 1420 1419 1418 1417 1417
1454 1454 1453 1453 1452 1451 1450 1450 1449 1447 1446 1445 1444 1442 1441 1440 1439 1438 1437 1436 1434 1434 1433 1432 1431 1430 1430 1430 1429 1428 1426 1425 1424 1422 1421 1419 1418 1417 1416 1415 1414 1412 1412
1451 1450 1450 1449 1448 1448 1447 1446 1445 1443 1442 1441 1440 1438 1437 1436 1435 1434 1433 1432 1430 1430 1429 1428 1427 1426 1425 1425 1424 1423 1422 1421 1419 1418 1417 1415 1414 1413 1412 1411 1410 1409 1408